WV5G-13 Weather Reports


Display with metric or nautical units.
time (UTC)temp
F
wind
direction
speed
MPH
gust
MPH
rain 1hr
in
rain 24hr
in
rain mn
in
humidity
%
barometer
mb
20260510230816 54 289 39.0 39.0 0.00 0.00 0.00 94 1020.6
20260510230311 53 289 39.0 39.0 0.00 0.00 0.00 95 1020.8
20260510225809 53 289 39.0 39.0 0.00 0.00 0.00 95 1020.9
20260510225306 53 289 39.0 39.0 0.00 0.00 0.00 95 1020.6
20260510224800 53 289 39.0 39.0 0.00 0.00 0.00 96 1020.8
20260510224256 53 289 39.0 39.0 0.00 0.00 0.00 96 1020.8
20260510223754 53 289 39.0 39.0 0.00 0.00 0.00 96 1021.0
20260510223251 53 289 39.0 39.0 0.00 0.00 0.00 96 1020.9
20260510222749 53 289 39.0 39.0 0.00 0.00 0.00 96 1020.6
20260510222246 52 289 39.0 39.0 0.00 0.00 0.00 96 1020.7
20260510221741 53 289 39.0 39.0 0.00 0.00 0.00 96 1021.0
20260510221238 53 289 39.0 39.0 0.00 0.00 0.00 96 1021.0
20260510220734 53 289 39.0 39.0 0.00 0.00 0.00 96 1020.7
20260510220230 53 289 39.0 39.0 0.00 0.00 0.00 96 1021.0
20260510215727 53 289 39.0 39.0 0.00 0.00 0.00 96 1021.1
20260510215225 53 289 39.0 39.0 0.00 0.00 0.00 97 1021.6
20260510214721 52 289 39.0 39.0 0.00 0.00 0.00 96 1022.0
20260510214219 53 289 39.0 39.0 0.00 0.00 0.00 96 1021.9
20260510213715 53 289 39.0 39.0 0.00 0.00 0.00 96 1021.7
20260510213212 53 289 39.0 39.0 0.00 0.00 0.00 96 1021.7
20260510212708 53 289 39.0 39.0 0.00 0.00 0.00 96 1021.6
20260510212206 53 289 39.0 39.0 0.00 0.00 0.00 96 1021.1
20260510211702 53 289 39.0 39.0 0.00 0.00 0.00 96 1021.6
20260510211156 53 289 39.0 39.0 0.00 0.00 0.00 96 1021.2
20260510210654 53 289 39.0 39.0 0.00 0.00 0.00 96 1021.2
20260510210149 53 289 39.0 39.0 0.00 0.00 0.00 96 1021.7
20260510205648 53 289 39.0 39.0 0.00 0.00 0.00 96 1022.0
20260510205144 53 289 39.0 39.0 0.00 0.00 0.00 95 1021.9
20260510204640 53 289 39.0 39.0 0.00 0.00 0.00 95 1021.7
20260510204137 53 289 39.0 39.0 0.00 0.00 0.00 94 1021.4
20260510203634 53 289 39.0 39.0 0.00 0.00 0.00 94 1020.9
20260510203130 53 289 39.0 39.0 0.00 0.00 0.00 94 1021.7
20260510202625 53 289 39.0 39.0 0.00 0.00 0.00 93 1021.5
20260510202120 53 289 39.0 39.0 0.00 0.00 0.00 93 1021.5
20260510201618 53 289 39.0 39.0 0.00 0.00 0.00 93 1021.9
20260510201115 53 289 39.0 39.0 0.00 0.00 0.00 92 1021.7
20260510200611 53 289 39.0 39.0 0.00 0.00 0.00 92 1021.6
20260510200109 52 289 39.0 39.0 0.00 0.00 0.00 91 1021.7
20260510195606 52 289 39.0 39.0 0.00 0.00 0.00 90 1021.6
20260510195102 53 289 39.0 39.0 0.00 0.00 0.00 90 1021.9
20260510194556 53 289 39.0 39.0 0.00 0.00 0.00 89 1021.7
20260510194054 53 289 39.0 39.0 0.00 0.00 0.00 88 1022.6
20260510193553 53 289 39.0 39.0 0.00 0.00 0.00 87 1022.6
20260510193049 53 289 39.0 39.0 0.00 0.00 0.00 87 1022.5
20260510192549 53 289 39.0 39.0 0.00 0.00 0.00 86 1022.0
20260510192046 53 289 39.0 39.0 0.00 0.00 0.00 85 1021.6
20260510191542 53 289 39.0 39.0 0.00 0.00 0.00 83 1021.1
20260510191039 54 289 39.0 39.0 0.00 0.00 0.00 82 1020.7
20260510190536 54 289 39.0 39.0 0.00 0.00 0.00 82 1020.7
20260510190034 54 289 39.0 39.0 0.00 0.00 0.00 81 1020.7
20260510185530 54 289 39.0 39.0 0.00 0.00 0.00 80 1020.7
20260510185028 55 289 39.0 39.0 0.00 0.00 0.00 79 1021.2
20260510184525 55 289 39.0 39.0 0.00 0.00 0.00 79 1021.0
20260510184020 55 289 39.0 39.0 0.00 0.00 0.00 78 1021.2
20260510183516 55 289 39.0 39.0 0.00 0.00 0.00 79 1020.9
20260510183011 54 289 39.0 39.0 0.00 0.00 0.00 80 1020.9
20260510182509 54 289 39.0 39.0 0.00 0.00 0.00 80 1021.0
20260510182003 54 289 39.0 39.0 0.00 0.00 0.00 80 1021.0
20260510181502 54 289 39.0 39.0 0.00 0.00 0.00 80 1021.0
20260510180956 54 289 39.0 39.0 0.00 0.00 0.00 79 1020.6
20260510180454 55 289 39.0 39.0 0.00 0.00 0.00 78 1020.2
20260510175951 56 289 39.0 39.0 0.00 0.00 0.00 77 1020.1
20260510175447 56 289 39.0 39.0 0.00 0.00 0.00 78 1019.9
20260510174943 55 289 39.0 39.0 0.00 0.00 0.00 78 1019.6
20260510174441 55 45 28.0 39.0 0.00 0.00 0.00 81 1019.9
20260510173938 54 55 19.0 39.0 0.00 0.00 0.00 82 1020.1
20260510173433 55 21 31.0 31.0 0.00 0.00 0.00 82 1020.1
20260510172930 54 40 27.0 34.0 0.00 0.00 0.00 83 1020.0
20260510172426 54 38 24.0 32.0 0.00 0.00 0.00 84 1019.8
20260510171922 54 18 27.0 27.0 0.00 0.00 0.00 85 1020.0
20260510171420 54 13 17.0 25.0 0.00 0.00 0.00 85 1019.8
20260510170916 53 19 16.0 25.0 0.00 0.00 0.00 85 1019.8
20260510170413 54 35 18.0 26.0 0.00 0.00 0.00 85 1019.8
20260510165908 54 20 21.0 28.0 0.00 0.00 0.00 85 1019.7
20260510165404 53 17 17.0 30.0 0.00 0.00 0.00 86 1019.6
20260510164902 53 33 19.0 32.0 0.00 0.00 0.00 87 1020.1
20260510164359 53 18 15.0 30.0 0.00 0.00 0.00 88 1019.9
20260510163859 53 22 19.0 27.0 0.00 0.00 0.00 90 1019.6
20260510163355 53 25 12.0 23.0 0.00 0.00 0.00 91 1019.6
20260510162849 52 23 15.0 21.0 0.00 0.00 0.00 92 1019.8
20260510162347 52 16 18.0 28.0 0.00 0.00 0.00 92 1019.6
20260510161842 52 33 13.0 31.0 0.00 0.00 0.00 93 1019.4
20260510161339 52 29 16.0 28.0 0.00 0.00 0.00 93 1019.2
20260510160836 51 8 15.0 28.0 0.00 0.00 0.00 93 1019.1
20260510160332 51 15 19.0 30.0 0.00 0.00 0.00 93 1019.4
20260510155826 51 18 20.0 27.0 0.00 0.00 0.00 93 1019.5
20260510155324 51 18 15.0 22.0 0.00 0.00 0.00 93 1019.1
20260510154819 51 0 21.0 27.0 0.00 0.00 0.00 93 1019.4
20260510154315 52 22 16.0 26.0 0.00 0.00 0.00 93 1018.9
20260510153810 53 5 14.0 30.0 0.00 0.00 0.00 92 1018.6
20260510153306 53 13 17.0 28.0 0.00 0.00 0.00 92 1018.4
20260510152803 53 5 21.0 30.0 0.00 0.00 0.00 91 1018.6
20260510152300 54 6 12.0 31.0 0.00 0.00 0.00 90 1018.5
20260510151756 55 13 18.0 34.0 0.00 0.00 0.00 89 1018.2
20260510151255 56 2 21.0 29.0 0.00 0.00 0.00 88 1018.2
20260510150750 56 19 28.0 29.0 0.00 0.00 0.00 87 1018.2
20260510150246 56 13 28.0 28.0 0.00 0.00 0.00 87 1017.9
20260510145742 56 25 30.0 35.0 0.00 0.00 0.00 86 1017.8
20260510145239 57 11 18.0 32.0 0.00 0.00 0.00 84 1017.8
20260510144734 57 26 18.0 32.0 0.00 0.00 0.00 83 1017.4
20260510144232 57 32 27.0 38.0 0.00 0.00 0.00 84 1017.4
20260510143726 57 34 18.0 29.0 0.00 0.00 0.00 86 1017.6
20260510143223 57 31 16.0 30.0 0.00 0.00 0.00 88 1017.4
20260510142719 56 25 21.0 26.0 0.00 0.00 0.00 90 1017.4
20260510142216 55 27 15.0 25.0 0.00 0.00 0.00 91 1017.5
20260510141713 55 17 12.0 24.0 0.00 0.00 0.00 90 1017.4
20260510141212 56 17 19.0 28.0 0.00 0.00 0.00 90 1017.4
20260510140708 56 10 23.0 30.0 0.00 0.00 0.00 89 1017.2
20260510140208 56 14 23.0 30.0 0.00 0.00 0.00 88 1017.0
20260510135702 56 2 13.0 26.0 0.00 0.00 0.00 87 1017.0
20260510135158 56 19 18.0 31.0 0.00 0.00 0.00 86 1016.9
20260510134656 56 16 23.0 29.0 0.00 0.00 0.00 86 1016.7
20260510134153 56 16 22.0 29.0 0.00 0.00 0.00 87 1016.4
20260510133649 57 6 13.0 25.0 0.00 0.00 0.00 87 1016.6
20260510133144 56 15 18.0 31.0 0.00 0.00 0.00 87 1016.2
20260510132641 57 0 15.0 28.0 0.00 0.00 0.00 87 1016.4
20260510132139 57 21 13.0 22.0 0.00 0.00 0.00 88 1015.9
20260510131636 56 8 17.0 30.0 0.00 0.00 0.00 87 1015.9
20260510131133 56 3 18.0 25.0 0.00 0.00 0.00 87 1015.7
20260510130630 57 8 13.0 28.0 0.00 0.00 0.00 87 1015.5
20260510130127 57 10 11.0 19.0 0.00 0.00 0.00 87 1015.5
20260510125623 57 22 18.0 26.0 0.00 0.00 0.00 86 1015.1
20260510125120 57 9 10.0 23.0 0.00 0.00 0.00 86 1014.8
20260510124617 57 11 16.0 25.0 0.00 0.00 0.00 86 1014.9
20260510124114 57 18 19.0 23.0 0.00 0.00 0.00 86 1014.6
20260510123609 58 8 15.0 21.0 0.00 0.00 0.00 86 1014.3
20260510123105 59 16 15.0 19.0 0.00 0.00 0.00 86 1014.1
20260510122601 59 16 10.0 17.0 0.00 0.00 0.00 85 1014.0
20260510122057 59 28 20.0 24.0 0.00 0.00 0.00 85 1013.9
20260510121554 59 15 10.0 19.0 0.00 0.00 0.00 85 1013.8
20260510121051 59 27 13.0 17.0 0.00 0.00 0.00 85 1013.6
20260510120549 59 31 8.0 20.0 0.00 0.00 0.00 85 1013.7
20260510120044 59 35 17.0 22.0 0.00 0.00 0.00 85 1013.6
20260510115541 59 39 17.0 22.0 0.00 0.00 0.00 85 1013.1
20260510115039 59 39 14.0 18.0 0.00 0.00 0.00 85 1013.1
20260510114534 59 45 11.0 20.0 0.00 0.00 0.00 85 1013.1
20260510114031 59 53 13.0 14.0 0.00 0.00 0.00 84 1013.1
20260510113526 59 58 11.0 19.0 0.00 0.00 0.00 84 1013.0
20260510113024 59 58 13.0 21.0 0.00 0.00 0.00 83 1012.8
20260510112520 59 73 15.0 21.0 0.00 0.00 0.00 83 1012.7
20260510112016 59 69 13.0 22.0 0.00 0.00 0.00 82 1012.7
20260510111514 60 74 15.0 23.0 0.00 0.00 0.00 81 1012.2
20260510111009 60 85 17.0 26.0 0.00 0.00 0.00 81 1012.5
20260510110505 60 80 15.0 24.0 0.00 0.00 0.00 80 1012.6
20260510110002 60 72 14.0 23.0 0.00 0.00 0.00 79 1012.2
20260510105457 61 64 15.0 24.0 0.00 0.00 0.00 79 1012.6
20260510104952 61 68 19.0 26.0 0.00 0.00 0.00 80 1012.7
20260510104449 61 44 13.0 25.0 0.00 0.00 0.00 81 1012.2
20260510103945 61 63 23.0 26.0 0.00 0.00 0.00 82 1012.6
20260510103443 61 62 14.0 24.0 0.00 0.00 0.00 82 1012.6
20260510102938 61 58 17.0 24.0 0.00 0.00 0.00 83 1012.5
20260510102434 60 9 12.0 20.0 0.00 0.00 0.00 83 1012.9
20260510101931 60 41 15.0 18.0 0.00 0.00 0.00 83 1012.1
20260510101429 60 70 12.0 25.0 0.00 0.00 0.00 83 1012.0
20260510100927 60 72 14.0 22.0 0.00 0.00 0.00 83 1011.9
20260510100423 60 73 15.0 21.0 0.00 0.00 0.00 83 1011.7
20260510095919 60 70 13.0 17.0 0.00 0.00 0.00 83 1011.8
20260510095415 60 66 10.0 14.0 0.00 0.00 0.00 83 1012.1
20260510094914 60 22 7.0 10.0 0.00 0.00 0.00 83 1012.3
20260510094409 60 65 8.0 12.0 0.00 0.00 0.00 83 1011.9
20260510093905 60 63 9.0 14.0 0.00 0.00 0.00 83 1011.7
20260510093401 60 87 10.0 16.0 0.00 0.00 0.00 82 1011.3
20260510092858 61 92 14.0 20.0 0.00 0.00 0.00 82 1010.9
20260510092354 61 85 9.0 19.0 0.00 0.00 0.00 82 1011.0
20260510091849 61 97 10.0 15.0 0.00 0.00 0.00 82 1010.7
20260510091347 61 85 13.0 20.0 0.00 0.00 0.00 82 1010.7
20260510090843 61 99 8.0 17.0 0.00 0.00 0.00 81 1010.5
20260510090340 61 115 15.0 22.0 0.00 0.00 0.00 81 1010.9
20260510085836 61 101 12.0 18.0 0.00 0.00 0.00 80 1010.5
20260510085330 61 107 14.0 22.0 0.00 0.00 0.00 80 1010.3
20260510084826 61 121 14.0 20.0 0.00 0.00 0.00 80 1010.6
20260510084324 62 114 13.0 20.0 0.00 0.00 0.00 79 1010.5
20260510083820 62 106 9.0 16.0 0.00 0.00 0.00 79 1010.6
20260510083317 62 94 10.0 18.0 0.00 0.00 0.00 78 1010.6
20260510082812 62 101 10.0 21.0 0.00 0.00 0.00 78 1010.3
20260510082310 62 84 15.0 19.0 0.00 0.00 0.00 77 1010.5
20260510081809 62 86 10.0 23.0 0.00 0.00 0.00 77 1010.5
20260510081305 62 103 12.0 24.0 0.00 0.00 0.00 76 1010.2
20260510080801 62 103 17.0 22.0 0.00 0.00 0.00 76 1010.3
20260510080255 62 95 13.0 22.0 0.00 0.00 0.00 76 1010.2
20260510075753 62 94 10.0 25.0 0.00 0.00 0.00 75 1010.0
20260510075250 63 101 23.0 25.0 0.00 0.00 0.00 75 1010.1
20260510074747 63 88 12.0 20.0 0.00 0.00 0.00 75 1010.0
20260510074244 63 83 14.0 26.0 0.00 0.00 0.00 74 1009.8
20260510073740 64 86 11.0 22.0 0.00 0.00 0.00 74 1009.6
20260510073236 64 80 18.0 20.0 0.00 0.00 0.00 74 1009.5
20260510072731 64 76 14.0 21.0 0.00 0.00 0.00 74 1009.2
20260510072229 64 72 13.0 15.0 0.00 0.00 0.00 74 1009.6
20260510071725 65 86 8.0 14.0 0.00 0.00 0.00 74 1009.5
20260510071222 65 58 13.0 18.0 0.00 0.00 0.00 74 1009.7
20260510070720 65 46 6.0 15.0 0.00 0.00 0.00 74 1009.7
20260510070217 65 40 10.0 15.0 0.00 0.00 0.00 73 1009.6
20260510065712 66 78 8.0 15.0 0.00 0.00 0.00 73 1009.7
20260510065208 66 83 14.0 20.0 0.00 0.00 0.00 72 1009.5
20260510064705 67 71 11.0 20.0 0.00 0.00 0.00 72 1009.3
20260510064203 67 67 16.0 26.0 0.00 0.00 0.00 72 1009.2
20260510063659 67 54 25.0 25.0 0.00 0.00 0.00 72 1009.1
20260510063155 66 57 22.0 23.0 0.00 0.00 0.00 72 1009.3
20260510062652 67 46 14.0 22.0 0.00 0.00 0.00 71 1009.5
20260510062148 67 61 11.0 22.0 0.00 0.00 0.00 71 1009.5
20260510061643 68 69 20.0 20.0 0.00 0.00 0.00 70 1009.7
20260510061141 68 88 9.0 17.0 0.00 0.00 0.00 69 1009.9
20260510060637 68 78 9.0 15.0 0.00 0.00 0.00 69 1009.9
20260510060134 68 74 12.0 18.0 0.00 0.00 0.00 69 1009.9
20260510055630 68 70 10.0 17.0 0.00 0.00 0.00 68 1009.8
20260510055128 68 63 11.0 20.0 0.00 0.00 0.00 68 1010.0
20260510054624 69 51 12.0 25.0 0.00 0.00 0.00 68 1009.8
20260510054119 69 58 19.0 26.0 0.00 0.00 0.00 67 1009.6
20260510053618 68 44 15.0 22.0 0.00 0.00 0.00 67 1009.9
20260510053116 69 58 11.0 17.0 0.00 0.00 0.00 66 1009.7
20260510052611 69 63 13.0 17.0 0.00 0.00 0.00 65 1009.7
20260510052108 70 64 7.0 10.0 0.00 0.00 0.00 64 1009.5
20260510051603 70 100 5.0 10.0 0.00 0.00 0.00 64 1009.6
20260510051101 70 106 5.0 15.0 0.00 0.00 0.00 63 1009.2
20260510050558 71 85 7.0 15.0 0.00 0.00 0.00 63 1009.2
20260510050055 71 92 10.0 13.0 0.00 0.00 0.00 62 1008.9
20260510045552 71 85 13.0 15.0 0.00 0.00 0.00 62 1009.0
20260510045048 71 84 11.0 14.0 0.00 0.00 0.00 62 1009.1
20260510044544 71 99 10.0 12.0 0.00 0.00 0.00 62 1008.9
20260510044042 71 94 5.0 14.0 0.00 0.00 0.00 61 1008.8
20260510043537 71 103 10.0 13.0 0.00 0.00 0.00 61 1008.8
20260510043033 71 86 12.0 15.0 0.00 0.00 0.00 60 1008.8
20260510042527 72 88 10.0 16.0 0.00 0.00 0.00 60 1008.8
20260510042022 71 103 9.0 14.0 0.00 0.00 0.00 60 1008.7
20260510041520 70 77 7.0 9.0 0.00 0.00 0.00 58 1008.3
20260510041017 71 73 7.0 11.0 0.00 0.00 0.00 58 1008.5
20260510040514 70 81 7.0 9.0 0.00 0.00 0.00 56 1008.5
20260510040009 70 88 4.0 5.0 0.00 0.00 0.00 54 1008.6
20260510035506 71 20 5.0 6.0 0.00 0.00 0.00 51 1008.6
20260510035005 72 120 5.0 6.0 0.00 0.00 0.00 53 1008.6
20260510034504 72 130 7.0 11.0 0.00 0.00 0.00 53 1008.6
20260510034000 71 143 6.0 9.0 0.00 0.00 0.00 48 1008.3
20260510033456 71 174 6.0 13.0 0.00 0.00 0.00 42 1008.6
20260510032954 70 225 4.0 6.0 0.00 0.00 0.00 37 1008.1
20260510032450 69 254 2.0 3.0 0.00 0.00 0.00 40 1007.7
20260510031945 70 50 5.0 8.0 0.00 0.00 0.00 36 1007.4
20260510031441 71 66 6.0 8.0 0.00 0.00 0.00 30 1007.4
20260510030936 71 50 7.0 9.0 0.00 0.00 0.00 29 1007.7
20260510030432 71 59 10.0 14.0 0.00 0.00 0.00 25 1007.4
20260510025930 72 10 4.0 9.0 0.00 0.00 0.00 22 1007.1
20260510025427 71 19 8.0 9.0 0.00 0.00 0.00 22 1006.6
20260510024925 69 15 5.0 6.0 0.00 0.00 0.00 23 1006.7
20260510024421 70 21 5.0 6.0 0.00 0.00 0.00 22 1006.4
20260510023917 71 96 3.0 4.0 0.00 0.00 0.00 22 1006.6
20260510023413 71 61 4.0 6.0 0.00 0.00 0.00 21 1006.2
20260510022911 72 59 4.0 6.0 0.00 0.00 0.00 21 1006.0
20260510022410 72 33 4.0 5.0 0.00 0.00 0.00 20 1006.1
20260510021909 73 57 5.0 7.0 0.00 0.00 0.00 19 1005.8
20260510021407 73 55 5.0 5.0 0.00 0.00 0.00 18 1005.8
20260510020903 74 36 3.0 4.0 0.00 0.00 0.00 18 1006.0
20260510020358 74 50 3.0 4.0 0.00 0.00 0.00 17 1005.8
20260510015854 75 64 4.0 5.0 0.00 0.00 0.00 17 1005.7
20260510015350 75 36 3.0 3.0 0.00 0.00 0.00 17 1005.6
20260510014845 75 51 2.0 3.0 0.00 0.00 0.00 17 1005.3
20260510014343 76 73 2.0 3.0 0.00 0.00 0.00 17 1005.4
20260510013839 76 59 3.0 4.0 0.00 0.00 0.00 18 1005.2
20260510013335 77 75 3.0 4.0 0.00 0.00 0.00 18 1005.1
20260510012830 79 55 3.0 4.0 0.00 0.00 0.00 17 1005.2
20260510012330 80 45 3.0 5.0 0.00 0.00 0.00 17 1005.1
20260510011825 80 33 3.0 4.0 0.00 0.00 0.00 16 1005.0
20260510011320 82 21 3.0 5.0 0.00 0.00 0.00 15 1004.8
20260510010817 82 25 3.0 3.0 0.00 0.00 0.00 16 1005.0
20260510010315 84 30 3.0 3.0 0.00 0.00 0.00 15 1004.8
20260510005811 85 21 3.0 4.0 0.00 0.00 0.00 14 1004.7
20260510005307 86 24 3.0 5.0 0.00 0.00 0.00 14 1004.9
20260510004805 87 15 3.0 4.0 0.00 0.00 0.00 14 1005.0
20260510004302 87 3 3.0 5.0 0.00 0.00 0.00 13 1004.9
20260510003800 88 4 3.0 4.0 0.00 0.00 0.00 12 1005.0
20260510003257 88 354 5.0 6.0 0.00 0.00 0.00 12 1004.9
20260510002755 89 29 8.0 8.0 0.00 0.00 0.00 12 1005.0
20260510002253 90 358 7.0 7.0 0.00 0.00 0.00 11 1005.0
20260510001749 90 269 0.0 4.0 0.00 0.00 0.00 11 1004.8
20260510001248 89 325 4.0 7.0 0.00 0.00 0.00 13 1005.3
20260510000743 89 309 4.0 10.0 0.00 0.00 0.00 13 1005.0
20260510000241 89 336 5.0 9.0 0.00 0.00 0.00 12 1005.0
20260509235737 89 341 5.0 10.0 0.00 0.00 0.00 13 1005.1
20260509235234 90 308 7.0 13.0 0.00 0.00 0.00 12 1005.2
20260509234730 90 281 4.0 9.0 0.00 0.00 0.00 11 1005.1
20260509234227 89 281 4.0 13.0 0.00 0.00 0.00 13 1005.6
20260509233725 90 306 11.0 11.0 0.00 0.00 0.00 11 1005.4
20260509233223 90 281 11.0 15.0 0.00 0.00 0.00 12 1005.3
20260509232718 90 306 12.0 18.0 0.00 0.00 0.00 11 1005.3
20260509232216 89 310 8.0 17.0 0.00 0.00 0.00 12 1005.7
20260509231712 89 312 10.0 19.0 0.00 0.00 0.00 12 1005.2